ITY2109 LIML-LIRF

Flight info

Callsign ITY2109
Flight time 0h 56m
Altitude 33000
Route EKPAL DCT TINKU DCT XIBIL
Aircraft A20N/M-SDE2E3FGHIRWXY/LB1

Departure

Time 2026-05-05 17:12
Airport Milano Linate Airport (LIML)

Arrival

Time 2026-05-05 18:08
Airport Rome–Fiumicino Leonardo da Vinci International Airport (LIRF)
Time Latitude Longitude Altitude Speed Heading
2026-05-05 16:56 45.45298 9.28013 366 ft 0 kts 270°
2026-05-05 17:06 45.45299 9.27993 367 ft 5 kts 270°
2026-05-05 17:06 45.45295 9.27923 364 ft 8 kts 243°
2026-05-05 17:07 45.45234 9.27881 363 ft 12 kts 194°
2026-05-05 17:07 45.45140 9.27876 364 ft 16 kts 175°
2026-05-05 17:07 45.45017 9.27889 362 ft 20 kts 176°
2026-05-05 17:07 45.44871 9.27934 365 ft 23 kts 164°
2026-05-05 17:08 45.44703 9.27957 362 ft 26 kts 175°
2026-05-05 17:08 45.44514 9.27979 359 ft 29 kts 178°
2026-05-05 17:08 45.44312 9.28000 357 ft 29 kts 176°
2026-05-05 17:08 45.44107 9.28022 361 ft 30 kts 175°
2026-05-05 17:09 45.43897 9.28043 362 ft 30 kts 175°
2026-05-05 17:09 45.43686 9.28068 360 ft 30 kts 174°
2026-05-05 17:09 45.43502 9.28083 356 ft 19 kts 192°
2026-05-05 17:09 45.43447 9.27998 356 ft 10 kts 262°
2026-05-05 17:10 45.43446 9.27971 354 ft 0 kts 266°
2026-05-05 17:11 45.43445 9.27965 352 ft 3 kts 266°
2026-05-05 17:11 45.43444 9.27872 355 ft 16 kts 285°
2026-05-05 17:11 45.43571 9.27808 356 ft 37 kts 355°
2026-05-05 17:11 45.44105 9.27757 356 ft 117 kts 356°
2026-05-05 17:12 45.45160 9.27643 488 ft 175 kts 358°
2026-05-05 17:12 45.46502 9.27496 688 ft 209 kts 358°
2026-05-05 17:12 45.47965 9.27337 1318 ft 208 kts 358°
2026-05-05 17:12 45.49378 9.27191 2176 ft 204 kts 358°
2026-05-05 17:13 45.50848 9.27053 2693 ft 219 kts 357°
2026-05-05 17:13 45.52406 9.27020 3178 ft 230 kts
2026-05-05 17:13 45.53909 9.27918 3625 ft 242 kts 39°
2026-05-05 17:13 45.54912 9.29843 4171 ft 245 kts 70°
2026-05-05 17:14 45.55155 9.32232 4756 ft 246 kts 92°
2026-05-05 17:14 45.54945 9.34653 5319 ft 246 kts 108°
2026-05-05 17:14 45.54131 9.36761 5820 ft 244 kts 136°
2026-05-05 17:14 45.52732 9.38079 6478 ft 242 kts 158°
2026-05-05 17:15 45.51172 9.39011 6934 ft 244 kts 162°
2026-05-05 17:15 45.49579 9.39864 7423 ft 246 kts 163°
2026-05-05 17:15 45.47953 9.40716 7775 ft 258 kts 163°
2026-05-05 17:15 45.46207 9.41629 8439 ft 271 kts 162°
2026-05-05 17:16 45.44425 9.42567 9400 ft 275 kts 162°
2026-05-05 17:16 45.42616 9.43521 10314 ft 280 kts 162°
2026-05-05 17:16 45.40719 9.44518 10798 ft 301 kts 163°
2026-05-05 17:16 45.38676 9.45589 11204 ft 323 kts 162°
2026-05-05 17:17 45.36539 9.46714 11862 ft 334 kts 163°
2026-05-05 17:17 45.34337 9.47875 12699 ft 340 kts 163°
2026-05-05 17:17 45.32096 9.49055 13576 ft 345 kts 163°
2026-05-05 17:17 45.29827 9.50249 14412 ft 350 kts 163°
2026-05-05 17:18 45.27598 9.51421 15234 ft 353 kts 164°
2026-05-05 17:18 45.25286 9.52635 16089 ft 355 kts 164°
2026-05-05 17:18 45.22966 9.53851 16919 ft 358 kts 164°
2026-05-05 17:18 45.20611 9.55085 17729 ft 361 kts 165°
2026-05-05 17:19 45.18247 9.56321 18486 ft 364 kts 165°
2026-05-05 17:19 45.15849 9.57574 19127 ft 369 kts 165°
2026-05-05 17:19 45.13432 9.58835 19760 ft 373 kts 165°
2026-05-05 17:19 45.10981 9.60114 20417 ft 377 kts 165°
2026-05-05 17:20 45.08514 9.61447 21087 ft 382 kts 163°
2026-05-05 17:20 45.06063 9.62986 21709 ft 388 kts 161°
2026-05-05 17:20 45.03605 9.64596 22307 ft 393 kts 161°
2026-05-05 17:20 45.01116 9.66235 22934 ft 396 kts 161°
2026-05-05 17:21 44.98593 9.67892 23526 ft 400 kts 161°
2026-05-05 17:21 44.96061 9.69552 24019 ft 403 kts 162°
2026-05-05 17:21 44.93505 9.71223 24499 ft 407 kts 162°
2026-05-05 17:22 44.88335 9.74596 25458 ft 412 kts 162°
2026-05-05 17:22 44.85722 9.76297 25926 ft 415 kts 162°
2026-05-05 17:22 44.83093 9.78007 26378 ft 418 kts 162°
2026-05-05 17:22 44.80592 9.79632 26800 ft 421 kts 162°
2026-05-05 17:23 44.77955 9.81343 27245 ft 424 kts 162°
2026-05-05 17:23 44.75273 9.83082 27674 ft 426 kts 162°
2026-05-05 17:23 44.72569 9.84832 28088 ft 429 kts 163°
2026-05-05 17:23 44.69864 9.86650 28497 ft 436 kts 159°
2026-05-05 17:24 44.67313 9.89096 28776 ft 454 kts 146°
2026-05-05 17:24 44.65010 9.92192 29134 ft 462 kts 142°
2026-05-05 17:24 44.62765 9.95452 29468 ft 466 kts 141°
2026-05-05 17:24 44.60516 9.98742 29805 ft 468 kts 141°
2026-05-05 17:25 44.58248 10.02046 30191 ft 471 kts 141°
2026-05-05 17:25 44.56709 10.04279 30435 ft 471 kts 141°
2026-05-05 17:25 44.53689 10.08648 30985 ft 471 kts 142°
2026-05-05 17:25 44.51409 10.11927 31368 ft 470 kts 143°
2026-05-05 17:26 44.48988 10.14941 31819 ft 459 kts 152°
2026-05-05 17:26 44.46320 10.17244 32270 ft 445 kts 162°
2026-05-05 17:26 44.43532 10.19041 32701 ft 439 kts 166°
2026-05-05 17:26 44.40701 10.20619 32958 ft 438 kts 168°
2026-05-05 17:27 44.37842 10.22091 33013 ft 437 kts 169°
2026-05-05 17:27 44.32126 10.24964 33011 ft 437 kts 169°
2026-05-05 17:28 44.26414 10.27896 33014 ft 438 kts 168°
2026-05-05 17:28 44.20699 10.30887 33009 ft 438 kts 168°
2026-05-05 17:29 44.15002 10.33885 33035 ft 438 kts 168°
2026-05-05 17:29 44.09289 10.36885 33038 ft 440 kts 168°
2026-05-05 17:30 44.03560 10.39885 33032 ft 440 kts 168°
2026-05-05 17:30 43.97829 10.42880 33024 ft 440 kts 168°
2026-05-05 17:31 43.92104 10.45865 33017 ft 440 kts 168°
2026-05-05 17:31 43.86379 10.48843 33004 ft 439 kts 168°
2026-05-05 17:32 43.80665 10.51808 32996 ft 439 kts 168°
2026-05-05 17:32 43.74980 10.54715 33000 ft 437 kts 169°
2026-05-05 17:33 43.69230 10.57428 32975 ft 436 kts 170°
2026-05-05 17:33 43.63437 10.60079 32993 ft 441 kts 170°
2026-05-05 17:34 43.57611 10.62757 32994 ft 442 kts 170°
2026-05-05 17:34 43.51775 10.65456 32986 ft 442 kts 170°
2026-05-05 17:35 43.45940 10.68155 32988 ft 442 kts 170°
2026-05-05 17:35 43.40107 10.70847 32990 ft 442 kts 170°
2026-05-05 17:36 43.34285 10.73527 32995 ft 442 kts 170°
2026-05-05 17:36 43.28444 10.76209 32995 ft 442 kts 170°
2026-05-05 17:37 43.22607 10.78884 32999 ft 443 kts 170°
2026-05-05 17:37 43.16772 10.81553 33002 ft 442 kts 170°
2026-05-05 17:38 43.10926 10.84222 32982 ft 442 kts 169°
2026-05-05 17:38 43.08492 10.85331 32998 ft 443 kts 169°
2026-05-05 17:39 43.03993 10.87378 33006 ft 443 kts 169°
2026-05-05 17:39 42.98182 10.90024 33018 ft 438 kts 170°
2026-05-05 17:39 42.95359 10.91303 32891 ft 441 kts 170°
2026-05-05 17:40 42.92449 10.92620 32160 ft 444 kts 169°
2026-05-05 17:40 42.89564 10.93926 31563 ft 443 kts 169°
2026-05-05 17:40 42.86616 10.95263 31144 ft 436 kts 169°
2026-05-05 17:40 42.83820 10.96537 31123 ft 421 kts 169°
2026-05-05 17:41 42.81078 10.97784 31112 ft 407 kts 169°
2026-05-05 17:41 42.78439 10.98890 30722 ft 398 kts 174°
2026-05-05 17:41 42.75670 10.99461 30526 ft 401 kts 184°
2026-05-05 17:41 42.72953 10.99424 30070 ft 402 kts 192°
2026-05-05 17:42 42.70213 10.98769 29134 ft 400 kts 201°
2026-05-05 17:42 42.67650 10.97368 28395 ft 393 kts 214°
2026-05-05 17:42 42.65489 10.95262 28053 ft 385 kts 226°
2026-05-05 17:42 42.63711 10.92549 27995 ft 383 kts 236°
2026-05-05 17:43 42.62309 10.89491 27998 ft 381 kts 244°
2026-05-05 17:43 42.61309 10.86165 27994 ft 380 kts 253°
2026-05-05 17:43 42.60749 10.82675 27992 ft 378 kts 260°
2026-05-05 17:43 42.60478 10.79178 27992 ft 380 kts 266°
2026-05-05 17:44 42.60567 10.75579 27994 ft 383 kts 274°
2026-05-05 17:44 42.61118 10.72031 27989 ft 387 kts 284°
2026-05-05 17:44 42.61760 10.69757 27988 ft 391 kts 291°
2026-05-05 17:44 42.63122 10.66603 27988 ft 397 kts 301°
2026-05-05 17:45 42.64986 10.63780 27989 ft 405 kts 312°
2026-05-05 17:45 42.67273 10.61490 27990 ft 414 kts 323°
2026-05-05 17:45 42.69906 10.59815 27996 ft 422 kts 332°
2026-05-05 17:45 42.72723 10.58590 27992 ft 429 kts 340°
2026-05-05 17:46 42.75701 10.57966 28001 ft 438 kts 351°
2026-05-05 17:46 42.78771 10.58163 27993 ft 449 kts
2026-05-05 17:46 42.81606 10.59203 27993 ft 458 kts 17°
2026-05-05 17:46 42.84433 10.61261 27993 ft 466 kts 32°
2026-05-05 17:47 42.86860 10.64215 27998 ft 471 kts 47°
2026-05-05 17:47 42.88723 10.67897 27998 ft 475 kts 62°
2026-05-05 17:47 42.89894 10.72021 27999 ft 475 kts 77°
2026-05-05 17:47 42.90342 10.76517 28005 ft 472 kts 91°
2026-05-05 17:48 42.90014 10.80922 28003 ft 466 kts 107°
2026-05-05 17:48 42.88839 10.84979 27991 ft 456 kts 124°
2026-05-05 17:48 42.87130 10.88616 27766 ft 453 kts 130°
2026-05-05 17:48 42.85316 10.92113 27501 ft 452 kts 130°
2026-05-05 17:49 42.83494 10.95593 27247 ft 450 kts 130°
2026-05-05 17:49 42.81690 10.99058 26988 ft 447 kts 130°
2026-05-05 17:49 42.79898 11.02505 26735 ft 445 kts 130°
2026-05-05 17:49 42.78076 11.05880 26481 ft 440 kts 135°
2026-05-05 17:50 42.76049 11.08963 26225 ft 435 kts 138°
2026-05-05 17:50 42.73969 11.11934 26062 ft 432 kts 139°
2026-05-05 17:50 42.71878 11.14868 25872 ft 431 kts 139°
2026-05-05 17:50 42.69792 11.17774 25408 ft 429 kts 139°
2026-05-05 17:51 42.67700 11.20677 24815 ft 429 kts 139°
2026-05-05 17:51 42.65613 11.23568 24234 ft 428 kts 139°
2026-05-05 17:51 42.63534 11.26442 23674 ft 425 kts 138°
2026-05-05 17:51 42.61475 11.29288 23004 ft 417 kts 138°
2026-05-05 17:52 42.59463 11.32067 22333 ft 408 kts 138°
2026-05-05 17:52 42.57492 11.34786 21684 ft 402 kts 139°
2026-05-05 17:52 42.55531 11.37483 21055 ft 402 kts 139°
2026-05-05 17:52 42.53567 11.40182 20433 ft 401 kts 139°
2026-05-05 17:53 42.51631 11.42840 19827 ft 400 kts 139°
2026-05-05 17:53 42.49670 11.45530 19244 ft 399 kts 138°
2026-05-05 17:53 42.47720 11.48203 18651 ft 398 kts 138°
2026-05-05 17:53 42.45782 11.50858 18033 ft 396 kts 138°
2026-05-05 17:54 42.43843 11.53513 17405 ft 394 kts 138°
2026-05-05 17:54 42.41959 11.56090 17073 ft 384 kts 139°
2026-05-05 17:54 42.39909 11.58285 17012 ft 359 kts 156°
2026-05-05 17:54 42.37695 11.59576 17011 ft 337 kts 164°
2026-05-05 17:55 42.35535 11.60603 17019 ft 320 kts 166°
2026-05-05 17:55 42.33486 11.61543 17005 ft 304 kts 166°
2026-05-05 17:55 42.31518 11.62446 16968 ft 293 kts 166°
2026-05-05 17:55 42.29592 11.63330 16974 ft 292 kts 166°
2026-05-05 17:56 42.27640 11.64225 16613 ft 301 kts 166°
2026-05-05 17:56 42.25645 11.65121 16129 ft 303 kts 167°
2026-05-05 17:56 42.23668 11.65980 15929 ft 294 kts 167°
2026-05-05 17:56 42.21760 11.66805 15616 ft 291 kts 167°
2026-05-05 17:57 42.19823 11.67638 15227 ft 291 kts 167°
2026-05-05 17:57 42.17895 11.68466 14833 ft 291 kts 167°
2026-05-05 17:57 42.15977 11.69290 14480 ft 290 kts 167°
2026-05-05 17:57 42.14067 11.70255 13926 ft 299 kts 158°
2026-05-05 17:58 42.12345 11.71894 13160 ft 318 kts 137°
2026-05-05 17:58 42.11157 11.74480 12373 ft 335 kts 110°
2026-05-05 17:58 42.11022 11.77596 12052 ft 334 kts 79°
2026-05-05 17:58 42.11954 11.80390 11800 ft 326 kts 51°
2026-05-05 17:59 42.13508 11.82551 11583 ft 316 kts 40°
2026-05-05 17:59 42.15111 11.84496 11441 ft 306 kts 42°
2026-05-05 17:59 42.16350 11.86708 11301 ft 297 kts 64°
2026-05-05 17:59 42.17100 11.89251 11139 ft 288 kts 72°
2026-05-05 18:00 42.17716 11.91785 10914 ft 283 kts 73°
2026-05-05 18:00 42.18303 11.94290 10669 ft 279 kts 73°
2026-05-05 18:00 42.18884 11.96782 10388 ft 276 kts 74°
2026-05-05 18:00 42.19238 11.99259 10171 ft 265 kts 97°
2026-05-05 18:01 42.18618 12.01494 9909 ft 251 kts 135°
2026-05-05 18:01 42.17226 12.02725 9554 ft 237 kts 170°
2026-05-05 18:01 42.15590 12.03048 9022 ft 243 kts 178°
2026-05-05 18:01 42.13921 12.03421 8408 ft 256 kts 170°
2026-05-05 18:02 42.12168 12.04135 7700 ft 272 kts 155°
2026-05-05 18:02 42.10635 12.05736 6981 ft 287 kts 139°
2026-05-05 18:02 42.09233 12.07712 6200 ft 297 kts 135°
2026-05-05 18:02 42.07818 12.09808 5341 ft 308 kts 135°
2026-05-05 18:03 42.06279 12.11834 4591 ft 309 kts 148°
2026-05-05 18:03 42.04431 12.13102 4393 ft 289 kts 162°
2026-05-05 18:03 42.02561 12.13857 4266 ft 273 kts 167°
2026-05-05 18:03 42.00775 12.14524 4120 ft 259 kts 165°
2026-05-05 18:04 41.99127 12.15207 4016 ft 238 kts 164°
2026-05-05 18:04 41.97656 12.15834 4030 ft 203 kts 164°
2026-05-05 18:04 41.96420 12.16371 3920 ft 175 kts 164°
2026-05-05 18:04 41.95225 12.16917 3684 ft 186 kts 163°
2026-05-05 18:05 41.94020 12.17554 3520 ft 187 kts 161°
2026-05-05 18:05 41.92813 12.18160 3412 ft 183 kts 164°
2026-05-05 18:05 41.91613 12.18673 3271 ft 181 kts 167°
2026-05-05 18:05 41.90353 12.19099 2826 ft 192 kts 168°
2026-05-05 18:06 41.89046 12.19608 2392 ft 199 kts 165°
2026-05-05 18:06 41.88199 12.19939 2034 ft 190 kts 165°
2026-05-05 18:06 41.86622 12.20545 1527 ft 165 kts 164°
2026-05-05 18:06 41.85557 12.20978 1156 ft 156 kts 162°
2026-05-05 18:07 41.84548 12.21401 793 ft 148 kts 162°
2026-05-05 18:07 41.83610 12.21781 485 ft 147 kts 162°
2026-05-05 18:07 41.82619 12.22180 337 ft 146 kts 162°
2026-05-05 18:07 41.81689 12.22586 98 ft 137 kts 161°
2026-05-05 18:08 41.80831 12.22942 41 ft 118 kts 162°
2026-05-05 18:08 41.80200 12.23206 19 ft 65 kts 165°
2026-05-05 18:08 41.79836 12.23357 18 ft 46 kts 161°
2026-05-05 18:08 41.79575 12.23492 12 ft 38 kts 151°
2026-05-05 18:09 41.79434 12.23648 12 ft 24 kts 134°
2026-05-05 18:09 41.79387 12.23714 13 ft 0 kts 135°
2026-05-05 18:09 41.79382 12.23721 13 ft 3 kts 135°
2026-05-05 18:09 41.79353 12.23762 15 ft 9 kts 133°
2026-05-05 18:10 41.79309 12.23851 17 ft 11 kts 96°
2026-05-05 18:10 41.79331 12.23958 18 ft 15 kts 71°
2026-05-05 18:10 41.79357 12.24076 20 ft 7 kts 87°
2026-05-05 18:10 41.79375 12.24155 20 ft 12 kts 68°
2026-05-05 18:11 41.79411 12.24223 20 ft 3 kts 358°
2026-05-05 18:11 41.79458 12.24206 19 ft 11 kts 345°
2026-05-05 18:11 41.79484 12.24195 19 ft 0 kts 338°